Temp
73 75 79 79 79 79 79 79 79 78 78 78 78 78 78 78 78 78 78 78 78 79 79 79 79 79 79 79 78 78 78 78 78 78 78 78 79 79 79 79 79 78 78
76 76 79 79 79 79 79 79 78 78 78 78 78 78 78 78 78 78 78 78 79 79 79 79 79 79 79 79 78 78 78 78 78 78 79 78 78 78 79 79 79 76 78
78 76 78 79 79 79 79 78 78 78 78 78 78 78 78 78 78 78 78 78 79 79 79 79 79 79 79 79 78 78 77 77 77 78 78 71 73 78 79 80 79 78 77
78 76 76 79 79 79 78 78 78 78 78 78 77 78 78 78 78 78 78 78 79 79 79 79 79 79 79 78 78 77 77 77 77 78 71 73 75 79 79 79 79 79 78
76 76 76 78 78 79 78 78 78 78 78 78 78 78 78 77 77 77 78 78 79 80 79 79 79 79 78 78 77 77 76 76 77 75 72 70 69 78 79 79 79 78 78
76 76 78 78 78 78 78 78 78 78 78 78 78 78 78 77 77 77 77 78 79 79 79 79 78 78 78 77 77 76 76 76 76 71 71 72 70 77 79 78 78 78 77
75 76 77 78 78 78 79 78 78 78 77 78 78 78 78 77 77 77 77 78 78 79 79 79 78 77 77 77 76 76 76 76 72 70 71 71 72 76 78 78 78 78 77
75 75 76 78 78 78 78 78 77 77 77 77 77 77 77 77 77 77 77 77 78 78 78 78 78 77 76 76 76 76 75 76 73 69 69 70 72 76 79 78 77 77 77
76 75 75 76 77 78 78 77 77 77 77 77 77 76 76 76 76 76 76 77 77 77 77 77 77 76 76 76 76 75 75 76 69 68 71 69 74 77 79 78 78 77 77
71 74 72 73 74 73 74 77 77 76 76 76 76 76 76 76 76 76 75 76 77 77 76 76 76 76 75 75 75 75 75 76 68 68 68 68 74 77 79 78 78 78 77
71 68 70 71 71 70 71 75 76 77 77 76 76 76 74 72 72 73 74 75 76 76 76 76 76 76 75 75 75 75 76 68 68 67 67 72 75 78 79 78 78 77 77
71 68 68 70 70 69 75 71 71 72 73 72 72 72 70 68 68 71 73 76 76 76 76 76 76 76 75 68 68 74 68 68 68 68 68 74 76 78 79 78 77 77 77
75 75 71 70 70 69 72 69 70 68 68 68 68 68 67 68 67 69 67 69 68 74 69 72 70 69 68 67 67 67 67 67 67 68 71 75 76 78 79 78 76 76 76
78 76 74 74 71 69 72 71 70 70 67 67 67 67 67 66 65 65 66 65 66 65 65 66 66 67 67 67 67 67 67 66 66 67 68 74 75 77 79 79 77 77 76
77 76 74 75 72 73 72 72 68 69 69 68 67 67 67 66 65 64 65 64 64 64 64 64 64 65 66 67 67 67 67 66 67 67 67 74 75 76 78 79 78 78 77
78 77 74 73 74 74 73 72 70 70 69 67 69 68 67 67 64 64 63 64 63 64 64 65 64 64 65 65 66 67 67 67 68 68 68 69 75 75 77 78 78 78 78
74 80 75 73 72 71 72 70 69 71 71 70 70 68 68 66 64 64 63 63 65 65 64 64 63 63 63 65 65 66 66 67 68 68 68 69 71 75 76 76 76 77 77
72 73 77 80 75 73 74 74 73 75 72 73 71 69 69 68 67 65 65 64 64 64 66 65 63 61 62 62 63 64 65 65 67 68 69 68 68 69 73 76 76 76 77
75 73 72 74 75 74 76 76 77 75 74 73 72 71 70 69 69 67 67 66 65 65 65 65 63 64 61 61 63 64 63 64 65 68 68 67 68 67 66 72 74 75 76
74 75 72 73 75 76 77 77 75 72 73 70 72 72 71 71 70 68 68 66 66 65 64 63 63 63 62 63 66 65 63 63 66 65 65 66 65 65 65 65 65 70 74
73 70 72 71 72 74 76 75 74 74 74 72 73 73 72 71 70 68 69 66 66 66 66 65 63 62 61 62 61 60 61 63 63 63 63 63 64 65 64 64 64 64 66
69 72 74 74 77 73 76 78 75 78 78 78 74 70 71 71 70 69 68 67 67 67 64 65 64 61 62 65 63 60 57 59 61 62 63 62 63 63 64 65 64 64 64
69 67 72 74 76 74 76 69 66 67 67 67 68 68 69 70 71 71 69 68 67 69 66 65 65 64 63 64 64 64 59 58 58 58 60 61 62 61 62 63 64 64 64
69 71 69 75 75 76 77 76 72 78 76 71 70 69 70 69 70 70 69 69 68 68 65 67 66 65 65 63 63 64 64 63 57 55 58 59 60 61 61 61 62 63 63
71 71 69 68 70 75 75 78 76 68 73 67 67 67 66 66 68 70 69 69 68 68 67 66 64 63 65 64 64 61 62 61 58 59 54 56 58 59 60 60 61 61 62
65 66 67 65 69 69 70 73 74 76 71 66 65 65 64 65 67 69 69 68 68 67 67 66 65 64 63 63 63 64 62 59 57 56 54 54 55 57 58 59 60 60 60
MSLP
1005.25 1005.64 1005.83 1006.25 1006.76 1006.93 1007.18 1007.41 1007.84 1008.27 1008.73 1009.17 1009.68 1009.78 1010.09 1010.39 1010.76 1011.08 1011.32 1011.63 1011.89 1012.10 1012.21 1012.41 1012.61 1012.76 1012.87 1013.04 1013.11 1013.28 1013.31 1013.33 1013.34 1013.46 1013.44 1013.43 1013.44 1013.46 1013.52 1013.62 1013.85 1013.94 1013.93
1003.84 1005.24 1005.48 1005.91 1006.51 1006.84 1007.18 1007.45 1007.81 1008.17 1008.48 1008.94 1009.50 1009.86 1010.13 1010.58 1010.89 1011.07 1011.44 1011.68 1011.87 1012.01 1012.22 1012.51 1012.70 1012.80 1012.92 1013.04 1013.19 1013.26 1013.40 1013.49 1013.55 1013.62 1013.57 1013.50 1013.53 1013.54 1013.59 1013.56 1013.83 1014.02 1014.07
1003.51 1004.58 1005.00 1005.41 1006.07 1006.57 1007.02 1007.27 1007.67 1008.10 1008.48 1009.02 1009.46 1009.93 1010.14 1010.42 1010.77 1011.06 1011.44 1011.70 1011.91 1012.08 1012.33 1012.50 1012.74 1012.87 1013.01 1013.09 1013.27 1013.32 1013.52 1013.60 1013.63 1013.66 1013.58 1013.72 1013.59 1013.45 1013.59 1013.62 1013.81 1014.01 1014.19
1003.51 1003.96 1004.66 1005.20 1005.80 1006.32 1006.76 1007.08 1007.42 1007.88 1008.29 1008.66 1009.20 1009.92 1010.34 1010.62 1010.89 1011.06 1011.29 1011.55 1011.84 1012.07 1012.32 1012.57 1012.80 1012.94 1013.07 1013.21 1013.33 1013.50 1013.67 1013.67 1013.75 1013.79 1013.84 1013.74 1013.72 1013.62 1013.65 1013.72 1013.87 1014.08 1014.20
1003.75 1004.29 1004.23 1004.91 1005.66 1006.11 1006.48 1006.63 1007.14 1007.60 1008.25 1008.55 1009.00 1009.38 1009.87 1010.33 1010.71 1011.08 1011.19 1011.42 1011.63 1011.91 1012.15 1012.46 1012.81 1013.12 1013.28 1013.40 1013.57 1013.66 1013.72 1013.74 1013.81 1013.90 1013.91 1013.89 1013.97 1013.81 1013.84 1013.82 1013.89 1014.06 1014.28
1003.61 1004.02 1004.28 1004.38 1005.36 1005.99 1006.38 1006.56 1007.04 1007.55 1007.91 1008.46 1008.93 1009.37 1009.84 1010.28 1010.62 1010.87 1011.22 1011.43 1011.53 1011.78 1012.06 1012.30 1012.79 1013.21 1013.41 1013.67 1013.71 1013.83 1013.80 1013.92 1014.00 1014.02 1013.76 1013.59 1013.76 1013.84 1013.95 1013.95 1014.00 1014.12 1014.31
1003.60 1003.84 1004.37 1004.24 1005.23 1006.04 1006.40 1006.45 1006.80 1007.33 1007.86 1008.26 1008.76 1009.25 1009.64 1010.14 1010.55 1010.73 1011.06 1011.25 1011.47 1011.67 1011.89 1012.13 1012.43 1013.13 1013.28 1013.58 1013.78 1013.88 1013.89 1013.94 1014.12 1014.10 1013.96 1013.65 1013.71 1013.80 1013.94 1013.97 1014.02 1014.14 1014.32
1003.10 1003.53 1004.28 1004.45 1005.32 1006.19 1006.46 1006.44 1006.62 1007.16 1007.63 1008.23 1008.74 1009.11 1009.39 1009.90 1010.32 1010.69 1010.90 1011.09 1011.32 1011.55 1011.75 1012.07 1012.42 1012.96 1013.36 1013.63 1013.73 1013.76 1013.82 1014.00 1014.17 1014.10 1014.02 1013.90 1013.84 1013.88 1013.99 1014.04 1014.06 1014.12 1014.24
1003.98 1004.09 1004.46 1004.90 1005.50 1006.17 1006.44 1006.61 1006.79 1007.05 1007.46 1007.90 1008.46 1008.95 1009.19 1009.44 1009.86 1010.29 1010.64 1011.04 1011.41 1011.66 1011.76 1011.99 1012.34 1012.74 1013.18 1013.55 1013.79 1013.79 1013.82 1013.96 1014.21 1014.13 1014.06 1013.98 1013.83 1013.87 1013.91 1013.98 1014.04 1014.08 1014.19
1004.16 1004.29 1004.55 1005.10 1005.66 1006.23 1006.56 1006.77 1006.79 1006.93 1007.31 1007.89 1008.11 1008.85 1009.23 1009.51 1009.89 1010.07 1010.42 1010.81 1011.27 1011.45 1011.65 1011.82 1012.05 1012.53 1012.94 1013.29 1013.61 1013.65 1013.72 1013.86 1014.11 1014.08 1014.06 1014.01 1013.88 1013.83 1013.84 1013.89 1013.93 1013.99 1014.17
1004.75 1004.73 1004.82 1005.17 1005.89 1006.35 1006.68 1006.84 1006.89 1007.08 1007.38 1007.81 1008.19 1008.50 1009.11 1009.44 1009.95 1010.19 1010.38 1010.74 1011.01 1011.35 1011.51 1011.71 1011.88 1012.31 1012.67 1013.02 1013.40 1013.47 1013.59 1013.87 1013.98 1013.93 1014.01 1013.84 1013.82 1013.81 1013.78 1013.86 1013.92 1013.88 1013.97
1004.72 1004.81 1005.03 1005.33 1005.92 1006.48 1006.54 1006.89 1007.04 1007.20 1007.39 1007.54 1007.91 1008.31 1008.90 1009.25 1009.60 1010.00 1010.18 1010.49 1010.86 1011.28 1011.55 1011.71 1011.79 1012.18 1012.43 1012.77 1013.26 1013.33 1013.45 1013.74 1013.80 1013.67 1013.73 1013.61 1013.67 1013.66 1013.60 1013.63 1013.71 1013.64 1013.58
1003.85 1004.77 1004.88 1005.17 1005.78 1006.50 1006.72 1006.85 1007.10 1007.22 1007.48 1007.67 1007.95 1008.42 1008.62 1009.02 1009.36 1009.69 1010.03 1010.31 1010.70 1010.90 1011.37 1011.60 1011.70 1012.08 1012.40 1012.65 1013.03 1013.27 1013.26 1013.49 1013.55 1013.41 1013.33 1013.31 1013.35 1013.42 1013.43 1013.39 1013.44 1013.39 1013.54
1004.50 1003.54 1004.20 1004.73 1005.11 1005.85 1006.41 1006.75 1007.06 1007.34 1007.51 1007.73 1007.75 1008.17 1008.64 1009.03 1009.30 1009.64 1009.92 1010.18 1010.43 1010.77 1011.15 1011.40 1011.61 1012.05 1012.23 1012.40 1012.69 1012.94 1013.02 1013.19 1013.19 1013.17 1013.02 1013.03 1013.03 1013.06 1013.00 1013.07 1013.07 1013.28 1013.41
1003.83 1004.43 1004.34 1004.26 1004.82 1005.13 1005.72 1006.02 1006.52 1006.82 1007.14 1007.24 1007.48 1007.78 1008.23 1008.94 1009.14 1009.27 1009.57 1009.95 1010.23 1010.50 1010.76 1011.11 1011.48 1011.86 1012.06 1012.22 1012.42 1012.59 1012.73 1012.79 1012.78 1012.76 1012.71 1012.59 1012.47 1012.57 1012.53 1012.44 1012.61 1012.90 1013.20
1002.52 1003.35 1004.29 1004.24 1004.26 1004.81 1005.13 1005.45 1005.81 1006.31 1006.50 1006.74 1006.92 1007.14 1007.79 1008.33 1008.89 1009.15 1009.28 1009.63 1010.04 1010.25 1010.48 1010.51 1010.97 1011.47 1011.72 1012.06 1012.28 1012.18 1012.33 1012.37 1012.33 1012.33 1012.24 1012.12 1011.96 1012.04 1012.22 1012.42 1012.57 1012.53 1012.78
1002.29 1002.32 1003.00 1003.57 1004.57 1004.46 1004.51 1004.82 1005.41 1005.72 1005.93 1006.12 1006.14 1006.40 1006.98 1007.81 1008.46 1008.78 1009.01 1009.34 1009.54 1009.76 1010.05 1010.41 1010.76 1011.12 1011.49 1011.87 1011.93 1012.00 1011.98 1011.93 1011.91 1011.96 1011.82 1011.75 1011.70 1011.74 1011.80 1012.01 1012.23 1012.25 1012.63
1001.66 1002.06 1002.18 1002.20 1003.10 1003.94 1004.13 1004.21 1004.72 1005.21 1005.55 1005.56 1005.82 1005.41 1006.09 1006.91 1007.64 1008.14 1008.47 1008.87 1008.94 1009.42 1009.71 1010.09 1010.38 1010.87 1011.17 1011.57 1011.71 1011.61 1011.67 1011.74 1011.66 1011.51 1011.29 1011.40 1011.50 1011.60 1011.68 1011.74 1011.88 1011.94 1012.02
1001.28 1001.42 1001.80 1002.36 1002.41 1002.63 1003.37 1003.28 1003.91 1004.48 1005.16 1004.58 1005.25 1005.25 1005.46 1005.88 1006.56 1007.23 1007.76 1008.25 1008.57 1009.16 1009.43 1009.70 1009.90 1010.23 1010.86 1011.21 1011.36 1011.29 1011.31 1011.43 1011.28 1011.20 1011.19 1011.17 1011.28 1011.30 1011.59 1011.56 1011.47 1011.67 1011.69
1001.11 1000.78 1001.13 1001.69 1001.94 1002.15 1002.43 1002.69 1003.27 1003.92 1004.40 1004.78 1004.59 1004.76 1004.72 1004.94 1005.63 1006.48 1006.89 1007.43 1008.08 1008.68 1009.16 1009.36 1009.48 1009.80 1010.18 1010.48 1010.89 1011.11 1011.06 1011.08 1011.02 1010.97 1010.96 1010.98 1011.24 1011.21 1011.35 1011.47 1011.51 1011.48 1011.53
1001.80 1001.30 1000.71 1001.05 1001.35 1002.12 1002.37 1002.66 1003.03 1003.28 1003.46 1003.68 1004.34 1004.22 1004.02 1004.42 1005.08 1005.81 1006.29 1006.83 1007.24 1007.83 1008.19 1008.70 1009.07 1009.45 1009.96 1010.18 1010.84 1011.11 1010.93 1010.91 1010.79 1010.78 1010.83 1011.13 1011.16 1010.97 1011.00 1011.11 1011.32 1011.47 1011.46
1001.55 1001.36 1001.17 1000.72 1000.50 1000.85 1001.35 1001.90 1001.63 1001.83 1001.66 1001.42 1003.09 1003.63 1003.66 1004.15 1004.37 1005.19 1005.66 1006.15 1006.31 1007.02 1007.65 1008.57 1008.54 1008.87 1009.31 1009.78 1010.36 1010.79 1010.99 1011.07 1010.75 1010.68 1010.93 1011.02 1010.92 1010.89 1010.88 1010.82 1011.04 1011.11 1011.19
1001.27 1001.20 1001.01 1000.35 999.77 999.88 1000.20 1001.02 1001.48 1001.52 1002.04 1002.32 1002.94 1002.85 1002.90 1003.22 1003.67 1004.26 1004.81 1005.31 1005.71 1006.26 1006.81 1007.59 1008.12 1008.14 1008.76 1009.20 1009.50 1009.78 1010.54 1010.77 1010.98 1010.87 1010.90 1010.84 1010.84 1010.81 1010.72 1010.80 1010.85 1010.89 1011.03
1000.67 1000.07 1000.15 999.82 999.45 998.89 999.03 999.93 1000.44 1000.64 1001.02 1001.26 1001.42 1001.75 1002.16 1002.60 1003.02 1003.54 1004.18 1004.64 1005.16 1005.65 1006.20 1006.79 1007.34 1007.57 1007.99 1008.71 1009.50 1009.48 1009.57 1009.86 1010.89 1011.22 1011.04 1010.88 1010.84 1010.76 1010.73 1010.73 1010.78 1010.61 1010.68
1000.25 999.47 998.88 998.90 998.86 998.51 998.29 998.73 999.48 1000.24 1000.29 1000.77 1001.25 1001.79 1002.15 1002.49 1002.92 1003.06 1003.47 1003.95 1004.63 1005.04 1005.43 1006.06 1006.85 1007.24 1007.40 1007.98 1008.52 1009.30 1009.69 1010.00 1010.30 1010.85 1011.36 1011.12 1010.90 1010.77 1010.68 1010.64 1010.63 1010.61 1010.57
1000.15 999.39 998.79 998.73 998.23 998.15 997.83 997.92 998.55 999.00 999.80 1000.64 1001.39 1001.95 1002.20 1002.59 1002.89 1002.73 1003.35 1003.36 1003.75 1004.30 1004.88 1005.59 1006.23 1006.70 1007.06 1007.51 1007.93 1008.38 1008.91 1009.61 1010.20 1010.63 1011.09 1011.30 1011.38 1011.04 1010.77 1010.74 1010.68 1010.63 1010.63
Wind_Speed
7 12 19 18 17 18 19 20 20 20 20 20 19 19 17 17 16 17 17 15 14 13 12 11 10 9 8 7 7 6 6 6 6 6 7 6 5 5 8 9 9 7 10
15 14 21 20 19 19 19 20 20 19 19 19 19 19 18 17 17 16 15 14 13 13 12 11 10 10 8 8 7 7 6 5 5 4 4 4 4 3 3 8 9 7 10
20 17 19 22 20 20 19 20 20 19 18 18 18 17 17 17 16 16 14 13 13 13 12 11 10 9 8 7 6 5 5 4 3 2 1 1 0 3 2 5 10 11 10
20 18 17 23 21 21 21 21 20 20 19 19 19 18 17 16 16 16 15 14 13 12 12 10 9 8 7 6 5 4 4 4 2 2 2 1 3 3 4 7 9 10 10
18 15 18 24 21 22 22 22 21 20 19 19 18 18 18 17 15 14 14 13 13 13 12 10 9 7 6 4 3 2 2 2 1 3 3 4 4 4 5 7 9 9 9
17 16 21 26 22 21 22 22 21 20 20 19 18 17 17 16 14 14 13 12 12 12 11 10 8 6 5 3 2 1 1 2 3 3 3 4 5 6 8 8 8 10 9
17 14 18 24 22 21 21 22 22 21 19 19 18 17 16 14 14 14 13 13 12 12 12 11 10 8 7 5 4 3 3 6 3 2 3 4 5 8 10 10 9 10 11
18 16 15 21 20 19 20 21 22 21 20 18 17 17 16 15 15 14 13 13 12 12 11 11 9 8 6 5 6 4 4 6 4 4 4 4 6 9 11 9 10 11 12
11 12 13 13 15 18 18 19 19 20 20 20 18 17 17 17 16 15 14 13 12 11 11 10 10 9 8 7 7 6 6 7 2 2 5 3 8 11 12 10 11 12 13
6 9 10 10 10 9 10 17 19 19 20 19 19 17 16 16 16 15 13 13 13 12 11 11 11 10 9 8 8 7 7 8 2 2 3 3 8 13 13 11 11 12 13
4 4 7 9 7 6 6 10 14 18 18 18 17 18 14 7 8 10 10 13 13 13 13 12 11 11 10 10 10 10 9 2 3 2 2 7 9 14 13 10 10 10 13
9 6 6 8 8 6 7 6 6 7 8 9 9 10 7 6 6 7 10 14 13 13 12 12 11 11 11 4 3 9 2 4 3 3 3 8 11 15 14 12 12 11 12
13 8 11 11 8 8 7 4 4 3 3 4 6 6 6 5 5 5 3 4 4 11 4 7 5 4 5 4 4 4 4 4 3 3 5 9 11 16 15 13 13 12 11
10 18 15 14 13 12 6 6 6 5 4 5 6 7 6 4 6 4 4 5 4 4 5 5 3 4 5 6 6 5 5 4 3 3 5 11 12 16 18 15 15 15 12
9 8 13 15 14 14 11 8 6 8 7 6 6 7 6 5 5 5 5 5 5 4 5 5 4 4 5 5 5 6 5 6 6 3 3 12 15 18 19 18 17 16 14
10 11 8 13 14 12 11 10 9 7 7 6 7 7 9 6 5 5 5 6 5 5 5 5 6 5 5 4 6 6 7 6 6 6 4 5 14 16 19 16 17 16 15
7 13 16 15 9 11 12 8 7 8 8 8 8 9 10 8 6 7 5 5 6 6 6 4 4 4 4 4 7 5 5 7 7 6 5 4 4 14 16 16 15 14 14
5 9 11 13 16 15 14 10 8 8 7 7 8 8 11 10 8 7 6 6 5 5 6 6 4 4 4 4 5 6 5 5 6 6 5 4 4 4 8 15 16 15 15
9 9 7 8 14 16 13 10 10 8 8 7 7 7 10 10 11 9 7 5 6 5 6 6 3 5 4 4 6 5 5 5 5 3 6 5 6 5 4 11 16 14 14
10 10 9 10 12 14 11 10 7 5 6 4 7 8 11 9 11 10 7 7 8 5 5 5 5 4 3 5 4 5 3 5 4 5 4 3 4 5 5 6 3 5 13
9 8 11 9 11 8 8 8 6 9 8 6 9 11 10 8 10 10 7 7 9 9 9 9 4 5 4 4 3 2 3 5 4 4 2 3 6 6 6 5 4 4 3
9 11 11 13 15 9 8 9 5 9 6 6 7 7 7 9 9 9 10 9 10 7 7 8 7 3 3 5 4 1 1 3 2 2 3 4 4 4 5 4 5 6 4
8 9 14 14 14 12 14 4 2 4 3 3 4 4 7 8 9 11 10 8 8 8 8 9 8 8 5 4 5 3 2 4 1 2 1 2 3 3 3 3 5 6 6
11 10 10 15 16 15 15 11 10 12 11 6 4 3 5 7 8 8 9 9 9 7 7 8 7 6 5 5 1 2 1 4 3 2 2 0 0 3 2 2 4 4 5
14 13 9 9 11 14 14 17 13 6 6 3 2 4 4 4 6 9 10 11 9 7 7 8 6 6 4 4 4 3 1 2 2 3 3 3 2 1 1 3 4 3 3
13 10 9 10 14 11 12 15 16 15 9 5 4 5 4 3 4 7 9 10 9 8 8 6 6 7 6 4 3 3 4 4 3 3 2 3 2 2 1 2 3 3 2
Wind_Direction
204 170 163 157 154 146 140 134 132 131 129 128 131 130 129 130 137 141 142 143 142 143 139 135 133 133 132 130 120 114 105 103 102 92 89 85 75 81 137 132 132 131 127
141 168 162 158 160 151 146 139 139 138 136 135 136 137 138 141 145 142 145 145 147 147 143 142 141 140 139 134 131 124 111 99 92 94 105 92 103 80 109 159 141 137 132
150 166 164 161 162 156 153 149 146 144 141 141 140 142 145 147 149 147 147 149 151 149 147 147 147 140 141 138 133 119 109 104 95 119 129 167 165 121 113 124 149 148 145
157 164 164 161 164 163 160 155 153 152 150 149 147 151 152 152 154 152 152 156 157 152 150 150 150 150 147 141 134 122 108 87 62 13 16 288 255 164 155 147 153 155 157
160 170 162 161 168 168 167 160 158 156 157 153 155 157 159 160 158 159 160 163 160 159 159 158 158 159 159 151 140 116 88 72 18 28 359 304 233 219 190 170 166 165 165
162 165 168 160 170 175 171 163 160 160 159 160 161 162 163 166 166 164 168 170 169 167 164 162 164 170 170 179 181 229 316 329 12 1 344 347 176 210 206 189 177 172 169
164 164 170 160 170 178 175 167 164 165 166 164 166 168 169 172 175 172 175 175 179 177 173 174 170 184 182 194 225 257 310 317 347 352 345 337 183 200 211 201 186 179 178
161 160 168 162 169 182 182 172 167 168 167 169 171 173 173 177 181 184 183 184 187 188 182 183 179 183 190 204 230 251 292 307 355 340 335 329 222 207 219 208 196 190 190
155 156 156 161 172 187 186 177 172 169 169 173 175 179 179 182 187 188 188 189 196 197 190 189 185 186 195 213 232 243 268 286 312 308 317 324 230 212 224 220 213 204 199
139 154 152 158 171 184 186 187 176 173 174 179 177 183 184 188 193 191 188 193 202 203 198 196 191 192 196 208 227 235 253 268 295 289 296 293 241 217 225 226 222 213 206
144 150 149 158 163 167 183 193 183 181 179 182 184 185 185 184 195 197 191 199 204 209 207 202 197 197 197 211 227 241 251 243 243 258 262 271 254 225 230 233 235 225 211
191 176 158 156 175 172 187 192 181 188 184 185 187 183 179 174 180 190 196 206 210 215 216 211 204 205 206 188 227 244 235 249 243 241 245 258 258 230 231 232 240 242 217
185 185 183 176 171 176 199 180 186 186 176 183 172 183 177 175 189 189 175 197 190 215 209 216 208 201 192 183 206 223 238 244 230 237 247 258 257 227 230 234 246 237 223
218 194 186 185 179 185 191 189 189 193 189 190 187 185 182 185 189 177 183 190 184 194 192 196 185 197 197 196 212 215 232 237 225 235 248 253 238 220 223 230 233 239 223
209 215 208 186 192 193 193 187 185 198 197 195 188 190 184 197 194 175 186 181 192 180 191 191 189 195 197 205 217 219 229 241 240 227 233 252 244 223 224 223 215 225 235
184 189 193 207 198 188 198 194 195 198 195 188 192 194 196 196 187 193 179 191 195 197 197 188 190 195 203 195 221 224 228 237 238 235 232 246 255 220 222 237 224 217 219
220 202 184 189 197 195 196 192 192 207 199 200 199 182 188 193 187 188 190 193 201 198 182 182 192 171 180 197 226 224 227 237 240 233 235 235 241 224 217 231 227 221 224
168 202 205 189 185 195 202 192 204 207 204 205 214 181 186 189 184 187 188 198 188 183 186 190 175 179 193 186 225 229 230 229 232 226 233 220 222 211 240 233 226 222 218
228 201 204 208 195 194 201 188 202 202 218 195 203 194 187 186 191 190 192 194 179 183 193 191 179 175 175 191 224 236 224 233 238 225 231 215 215 214 222 242 228 221 231
227 214 197 194 207 201 200 194 194 192 210 218 211 205 188 186 189 189 189 179 181 185 189 185 187 176 165 197 214 243 246 247 229 220 210 214 233 224 233 230 266 241 239
268 256 212 185 209 200 200 196 206 209 203 198 226 215 191 185 186 187 196 179 181 192 199 195 170 167 201 159 101 278 258 242 235 229 232 225 228 222 222 213 207 234 262
248 243 246 217 207 189 194 219 193 198 237 203 209 203 183 189 177 183 193 194 185 184 171 187 182 147 179 168 160 152 272 315 310 255 214 232 238 230 230 216 205 220 225
279 227 236 239 227 205 202 148 71 59 89 134 201 194 195 187 186 194 193 189 184 186 184 185 187 169 166 180 197 153 120 226 45 337 339 239 214 231 244 236 227 218 219
280 284 237 234 226 220 206 202 198 209 203 208 192 180 190 198 212 186 191 189 184 184 173 185 183 178 145 158 171 231 22 144 166 321 317 335 256 242 240 229 243 239 209
297 290 278 243 235 231 193 202 201 187 212 133 129 169 210 203 207 199 192 182 181 180 177 165 161 172 176 146 151 154 136 48 93 130 244 307 341 303 270 244 244 248 218
299 285 269 245 239 224 203 198 200 198 188 162 152 188 196 194 200 188 186 177 171 168 165 169 176 174 176 160 137 152 154 167 175 146 172 223 221 298 297 260 244 250 221